Location: Newark
(14.1000°N, 87.2167°W)
Time: 16:24:04
(UTC+00:00)

N. Korean satellite - Pass Details

Date: 16 July 2019
Orbit: 457 x 507 km, 97.2° (Epoch: 23 August)

Event Time Altitude Azimuth Distance (km) Brightness Sun altitude
Rises 11:02:35 0° 28° (NNE) 2,586 11.2 -6.7°
Reaches altitude 10° 11:04:53 10° 40° (NE) 1,707 10.5 -6.1°
Maximum altitude 11:08:02 27° 99° (E) 1,001 8.9 -5.4°
Drops below altitude 10° 11:11:11 10° 158° (SSE) 1,711 9.3 -4.7°
Sets 11:13:30 0° 171° (S) 2,594 10.1 -4.2°
